Tracking 28790 objects as of 19-Apr-2024
HD Live streaming from Space Station
objects crossing your sky now

MICRO LABSAT

Track MICRO LABSAT now!
10-day predictions
MICRO LABSAT is classified as:


NORAD ID: 27600
Int'l Code: 2002-056D
Perigee: 789.8 km
Apogee: 806.8 km
Inclination: 98.7 °
Period: 100.7 minutes
Semi major axis: 7169 km
RCS: 0.4739 m2 (medium)
Launch date: December 14, 2002
Source: Japan (JPN)
Launch site: TANEGASHIMA SPACE CENTER (TNSTA)

Research and development of microsatellite technology.
Your satellite tracking list
Your tracking list is empty




NASA's NSSDC Master Catalog

Two Line Element Set (TLE):
1 27600U 02056D   24109.86087928  .00000633  00000-0  26152-3 0  9993
2 27600  98.7049  60.1358 0011869  98.4620 261.7908 14.30176344113686
Source of the keplerian elements: AFSPC